| time (UTC) | temp F | wind direction | speed MPH | gust MPH | rain 1hr in | rain 24hr in | rain mn in | humidity % | barometer mb |
| 20260507002504 | 66 | 246 | 6.0 | 15.0 | 0.00 | 0.00 | 0.00 | 64 | 1015.4 |
| 20260507002004 | 66 | 240 | 7.0 | 14.0 | 0.00 | 0.00 | 0.00 | 65 | 1015.5 |
| 20260507001504 | 66 | 241 | 8.0 | 13.0 | 0.00 | 0.00 | 0.00 | 64 | 1015.4 |
| 20260507001004 | 66 | 255 | 8.0 | 14.0 | 0.00 | 0.00 | 0.00 | 63 | 1015.4 |
| 20260507000505 | 66 | 263 | 8.0 | 15.0 | 0.00 | 0.00 | 0.00 | 63 | 1015.3 |
| 20260507000004 | 66 | 261 | 8.0 | 15.0 | 0.00 | 0.00 | 0.00 | 62 | 1015.4 |
| 20260506235504 | 66 | 253 | 9.0 | 15.0 | 0.00 | 0.00 | 0.00 | 62 | 1015.5 |
| 20260506235004 | 66 | 251 | 9.0 | 15.0 | 0.00 | 0.00 | 0.00 | 62 | 1015.4 |
| 20260506234504 | 66 | 249 | 9.0 | 15.0 | 0.00 | 0.00 | 0.00 | 61 | 1015.4 |
| 20260506234004 | 67 | 246 | 9.0 | 16.0 | 0.00 | 0.00 | 0.00 | 61 | 1015.5 |
| 20260506233504 | 67 | 255 | 9.0 | 16.0 | 0.00 | 0.00 | 0.00 | 60 | 1015.5 |
| 20260506233025 | 67 | 255 | 9.0 | 16.0 | 0.00 | 0.00 | 0.00 | 61 | 1015.4 |
| 20260506232504 | 67 | 247 | 9.0 | 15.0 | 0.00 | 0.00 | 0.00 | 61 | 1015.5 |
| 20260506232004 | 67 | 248 | 9.0 | 15.0 | 0.00 | 0.00 | 0.00 | 62 | 1015.4 |
| 20260506231525 | 67 | 243 | 9.0 | 15.0 | 0.00 | 0.00 | 0.00 | 62 | 1015.5 |
| 20260506231004 | 66 | 236 | 9.0 | 18.0 | 0.00 | 0.00 | 0.00 | 63 | 1015.6 |
| 20260506230525 | 66 | 243 | 9.0 | 18.0 | 0.00 | 0.00 | 0.00 | 63 | 1015.6 |
| 20260506230004 | 67 | 244 | 9.0 | 15.0 | 0.00 | 0.00 | 0.00 | 63 | 1015.7 |
| 20260506225525 | 67 | 242 | 9.0 | 15.0 | 0.00 | 0.00 | 0.00 | 64 | 1015.7 |
| 20260506225004 | 66 | 240 | 9.0 | 16.0 | 0.00 | 0.00 | 0.00 | 64 | 1015.8 |
| 20260506224504 | 66 | 226 | 9.0 | 16.0 | 0.00 | 0.00 | 0.00 | 64 | 1015.9 |
| 20260506224004 | 66 | 225 | 9.0 | 16.0 | 0.00 | 0.00 | 0.00 | 64 | 1016.0 |
| 20260506223525 | 66 | 242 | 9.0 | 15.0 | 0.00 | 0.00 | 0.00 | 64 | 1016.1 |
| 20260506223004 | 67 | 255 | 9.0 | 15.0 | 0.00 | 0.00 | 0.00 | 64 | 1016.2 |
| 20260506222504 | 67 | 250 | 9.0 | 16.0 | 0.00 | 0.00 | 0.00 | 64 | 1016.3 |
| 20260506222004 | 67 | 242 | 9.0 | 16.0 | 0.00 | 0.00 | 0.00 | 64 | 1016.4 |
| 20260506221504 | 67 | 235 | 9.0 | 17.0 | 0.00 | 0.00 | 0.00 | 65 | 1016.6 |
| 20260506221004 | 67 | 250 | 9.0 | 17.0 | 0.00 | 0.00 | 0.00 | 64 | 1016.7 |
| 20260506220525 | 67 | 260 | 9.0 | 16.0 | 0.00 | 0.00 | 0.00 | 63 | 1016.7 |
| 20260506220025 | 68 | 254 | 9.0 | 15.0 | 0.00 | 0.00 | 0.00 | 63 | 1016.8 |
| 20260506215504 | 67 | 252 | 8.0 | 15.0 | 0.00 | 0.00 | 0.00 | 62 | 1016.9 |
| 20260506215025 | 68 | 256 | 8.0 | 14.0 | 0.00 | 0.00 | 0.00 | 63 | 1016.9 |
| 20260506214504 | 68 | 246 | 8.0 | 14.0 | 0.00 | 0.00 | 0.00 | 63 | 1017.0 |
| 20260506214004 | 68 | 250 | 8.0 | 14.0 | 0.00 | 0.00 | 0.00 | 63 | 1017.0 |
| 20260506213504 | 68 | 253 | 8.0 | 14.0 | 0.00 | 0.00 | 0.00 | 63 | 1017.1 |
| 20260506213004 | 68 | 238 | 8.0 | 14.0 | 0.00 | 0.00 | 0.00 | 62 | 1017.1 |
| 20260506212525 | 68 | 234 | 8.0 | 13.0 | 0.00 | 0.00 | 0.00 | 62 | 1017.1 |
| 20260506212004 | 68 | 255 | 8.0 | 13.0 | 0.00 | 0.00 | 0.00 | 62 | 1017.1 |
| 20260506211504 | 68 | 263 | 7.0 | 13.0 | 0.00 | 0.00 | 0.00 | 60 | 1017.2 |
| 20260506211004 | 68 | 248 | 7.0 | 13.0 | 0.00 | 0.00 | 0.00 | 61 | 1017.2 |
| 20260506210504 | 68 | 240 | 7.0 | 13.0 | 0.00 | 0.00 | 0.00 | 60 | 1017.5 |
| 20260506210004 | 68 | 257 | 7.0 | 14.0 | 0.00 | 0.00 | 0.00 | 59 | 1017.5 |
| 20260506205504 | 69 | 263 | 7.0 | 14.0 | 0.00 | 0.00 | 0.00 | 60 | 1017.4 |
| 20260506205004 | 69 | 249 | 7.0 | 12.0 | 0.00 | 0.00 | 0.00 | 59 | 1017.4 |
| 20260506204504 | 69 | 249 | 6.0 | 11.0 | 0.00 | 0.00 | 0.00 | 60 | 1017.4 |
| 20260506204004 | 69 | 237 | 6.0 | 11.0 | 0.00 | 0.00 | 0.00 | 61 | 1017.3 |
| 20260506203504 | 68 | 221 | 7.0 | 12.0 | 0.00 | 0.00 | 0.00 | 59 | 1017.4 |
| 20260506203004 | 68 | 219 | 6.0 | 12.0 | 0.00 | 0.00 | 0.00 | 61 | 1017.4 |
| 20260506202504 | 68 | 220 | 6.0 | 12.0 | 0.00 | 0.00 | 0.00 | 61 | 1017.5 |
| 20260506202004 | 69 | 230 | 7.0 | 14.0 | 0.00 | 0.00 | 0.00 | 60 | 1017.5 |
| 20260506201504 | 68 | 247 | 7.0 | 14.0 | 0.00 | 0.00 | 0.00 | 60 | 1017.7 |
| 20260506201005 | 68 | 249 | 7.0 | 14.0 | 0.00 | 0.00 | 0.00 | 61 | 1017.7 |
| 20260506200504 | 68 | 242 | 6.0 | 14.0 | 0.00 | 0.00 | 0.00 | 62 | 1017.7 |
| 20260506200004 | 68 | 238 | 6.0 | 13.0 | 0.00 | 0.00 | 0.00 | 62 | 1017.7 |
| 20260506195504 | 68 | 229 | 6.0 | 13.0 | 0.00 | 0.00 | 0.00 | 61 | 1017.8 |
| 20260506195004 | 68 | 227 | 6.0 | 13.0 | 0.00 | 0.00 | 0.00 | 63 | 1017.8 |
| 20260506194504 | 68 | 230 | 7.0 | 13.0 | 0.00 | 0.00 | 0.00 | 63 | 1017.8 |
| 20260506194025 | 68 | 227 | 7.0 | 12.0 | 0.00 | 0.00 | 0.00 | 63 | 1017.9 |
| 20260506193504 | 68 | 239 | 7.0 | 12.0 | 0.00 | 0.00 | 0.00 | 63 | 1017.9 |
| 20260506193025 | 68 | 248 | 7.0 | 12.0 | 0.00 | 0.00 | 0.00 | 63 | 1017.8 |
| 20260506192525 | 68 | 244 | 7.0 | 14.0 | 0.00 | 0.00 | 0.00 | 64 | 1017.8 |
| 20260506192004 | 68 | 236 | 6.0 | 14.0 | 0.00 | 0.00 | 0.00 | 64 | 1017.9 |
| 20260506191526 | 68 | 232 | 6.0 | 12.0 | 0.00 | 0.00 | 0.00 | 64 | 1017.9 |
| 20260506191004 | 67 | 229 | 6.0 | 13.0 | 0.00 | 0.00 | 0.00 | 65 | 1017.9 |
| 20260506190525 | 67 | 222 | 5.0 | 13.0 | 0.00 | 0.00 | 0.00 | 65 | 1017.9 |
| 20260506190005 | 67 | 227 | 5.0 | 11.0 | 0.00 | 0.00 | 0.00 | 64 | 1017.9 |
| 20260506185504 | 67 | 227 | 6.0 | 11.0 | 0.00 | 0.00 | 0.00 | 65 | 1018.0 |
| 20260506185004 | 67 | 221 | 6.0 | 13.0 | 0.00 | 0.00 | 0.00 | 65 | 1017.9 |
| 20260506184504 | 67 | 233 | 6.0 | 13.0 | 0.00 | 0.00 | 0.00 | 65 | 1018.1 |
| 20260506184004 | 67 | 232 | 6.0 | 15.0 | 0.00 | 0.00 | 0.00 | 64 | 1017.9 |
| 20260506183525 | 67 | 228 | 6.0 | 15.0 | 0.00 | 0.00 | 0.00 | 65 | 1018.0 |
| 20260506183005 | 67 | 229 | 7.0 | 11.0 | 0.00 | 0.00 | 0.00 | 66 | 1018.0 |
| 20260506182504 | 67 | 236 | 7.0 | 14.0 | 0.00 | 0.00 | 0.00 | 66 | 1017.8 |
| 20260506182004 | 67 | 240 | 7.0 | 14.0 | 0.00 | 0.00 | 0.00 | 66 | 1018.0 |
| 20260506181504 | 67 | 235 | 7.0 | 14.0 | 0.00 | 0.00 | 0.00 | 66 | 1018.1 |
| 20260506181004 | 67 | 235 | 7.0 | 13.0 | 0.00 | 0.00 | 0.00 | 66 | 1018.0 |
| 20260506180525 | 67 | 230 | 7.0 | 13.0 | 0.00 | 0.00 | 0.00 | 66 | 1018.0 |
| 20260506180005 | 68 | 229 | 6.0 | 11.0 | 0.00 | 0.00 | 0.00 | 65 | 1018.0 |
| 20260506175525 | 68 | 231 | 5.0 | 11.0 | 0.00 | 0.00 | 0.00 | 65 | 1017.9 |
| 20260506175004 | 68 | 233 | 4.0 | 11.0 | 0.00 | 0.00 | 0.00 | 64 | 1017.9 |
| 20260506174504 | 68 | 242 | 4.0 | 11.0 | 0.00 | 0.00 | 0.00 | 64 | 1018.0 |
| 20260506174004 | 68 | 249 | 4.0 | 9.0 | 0.00 | 0.00 | 0.00 | 63 | 1017.9 |
| 20260506173504 | 68 | 250 | 4.0 | 8.0 | 0.00 | 0.00 | 0.00 | 64 | 1018.0 |
| 20260506173004 | 68 | 216 | 4.0 | 8.0 | 0.00 | 0.00 | 0.00 | 63 | 1017.9 |
| 20260506172504 | 68 | 216 | 4.0 | 8.0 | 0.00 | 0.00 | 0.00 | 64 | 1017.8 |
| 20260506172004 | 67 | 236 | 4.0 | 8.0 | 0.00 | 0.00 | 0.00 | 63 | 1017.9 |
| 20260506171504 | 67 | 199 | 4.0 | 8.0 | 0.00 | 0.00 | 0.00 | 64 | 1017.9 |
| 20260506171004 | 66 | 176 | 4.0 | 8.0 | 0.00 | 0.00 | 0.00 | 64 | 1018.0 |
| 20260506170504 | 66 | 195 | 4.0 | 9.0 | 0.00 | 0.00 | 0.00 | 63 | 1018.0 |
| 20260506170004 | 66 | 204 | 4.0 | 9.0 | 0.00 | 0.00 | 0.00 | 64 | 1018.1 |
| 20260506165504 | 66 | 199 | 3.0 | 8.0 | 0.00 | 0.00 | 0.00 | 64 | 1017.9 |
| 20260506165005 | 66 | 219 | 3.0 | 7.0 | 0.00 | 0.00 | 0.00 | 64 | 1018.0 |
| 20260506164504 | 66 | 228 | 4.0 | 7.0 | 0.00 | 0.00 | 0.00 | 65 | 1018.1 |
| 20260506164004 | 65 | 212 | 3.0 | 8.0 | 0.00 | 0.00 | 0.00 | 65 | 1018.2 |
| 20260506163504 | 65 | 215 | 2.0 | 8.0 | 0.00 | 0.00 | 0.00 | 65 | 1018.1 |
| 20260506163005 | 65 | 243 | 2.0 | 7.0 | 0.00 | 0.00 | 0.00 | 65 | 1018.1 |
| 20260506162504 | 65 | 261 | 2.0 | 6.0 | 0.00 | 0.00 | 0.00 | 65 | 1018.1 |
| 20260506162025 | 65 | 263 | 2.0 | 8.0 | 0.00 | 0.00 | 0.00 | 64 | 1018.1 |
| 20260506161525 | 65 | 264 | 1.0 | 8.0 | 0.00 | 0.00 | 0.00 | 65 | 1018.1 |
| 20260506161004 | 64 | 274 | 1.0 | 4.0 | 0.00 | 0.00 | 0.00 | 66 | 1018.0 |
| 20260506160504 | 64 | 284 | 1.0 | 6.0 | 0.00 | 0.00 | 0.00 | 67 | 1018.1 |
| 20260506160005 | 63 | 323 | 1.0 | 6.0 | 0.00 | 0.00 | 0.00 | 67 | 1017.9 |
| 20260506155504 | 63 | 12 | 1.0 | 4.0 | 0.00 | 0.00 | 0.00 | 68 | 1018.0 |
| 20260506155004 | 62 | 32 | 1.0 | 3.0 | 0.00 | 0.00 | 0.00 | 68 | 1018.0 |
| 20260506154526 | 61 | 32 | 2.0 | 4.0 | 0.00 | 0.00 | 0.00 | 69 | 1018.0 |
| 20260506154005 | 61 | 46 | 3.0 | 4.0 | 0.00 | 0.00 | 0.00 | 69 | 1017.9 |
| 20260506153504 | 60 | 52 | 3.0 | 8.0 | 0.00 | 0.00 | 0.00 | 70 | 1018.1 |
| 20260506153025 | 60 | 36 | 3.0 | 8.0 | 0.00 | 0.00 | 0.00 | 70 | 1018.0 |
| 20260506152505 | 59 | 38 | 4.0 | 6.0 | 0.00 | 0.00 | 0.00 | 72 | 1018.0 |
| 20260506152004 | 59 | 42 | 4.0 | 8.0 | 0.00 | 0.00 | 0.00 | 72 | 1017.9 |
| 20260506151504 | 59 | 33 | 4.0 | 10.0 | 0.00 | 0.00 | 0.00 | 72 | 1018.0 |
| 20260506151004 | 58 | 43 | 4.0 | 10.0 | 0.00 | 0.00 | 0.00 | 73 | 1018.0 |
| 20260506150504 | 58 | 50 | 4.0 | 8.0 | 0.00 | 0.00 | 0.00 | 73 | 1018.0 |
| 20260506150025 | 58 | 48 | 4.0 | 8.0 | 0.00 | 0.00 | 0.00 | 74 | 1017.9 |
| 20260506145504 | 57 | 38 | 4.0 | 9.0 | 0.00 | 0.00 | 0.00 | 74 | 1017.9 |
| 20260506145025 | 57 | 34 | 4.0 | 10.0 | 0.00 | 0.00 | 0.00 | 75 | 1018.0 |
| 20260506144504 | 57 | 36 | 4.0 | 10.0 | 0.00 | 0.00 | 0.00 | 75 | 1018.0 |
| 20260506144025 | 56 | 33 | 4.0 | 8.0 | 0.00 | 0.00 | 0.00 | 76 | 1018.0 |
| 20260506143504 | 56 | 32 | 4.0 | 9.0 | 0.00 | 0.00 | 0.00 | 76 | 1017.8 |
| 20260506143004 | 55 | 29 | 3.0 | 7.0 | 0.00 | 0.00 | 0.00 | 77 | 1017.8 |
| 20260506142504 | 55 | 31 | 3.0 | 7.0 | 0.00 | 0.00 | 0.00 | 78 | 1017.8 |
| 20260506142004 | 55 | 27 | 3.0 | 7.0 | 0.00 | 0.00 | 0.00 | 78 | 1017.7 |
| 20260506141505 | 54 | 24 | 3.0 | 7.0 | 0.00 | 0.00 | 0.00 | 78 | 1017.8 |
| 20260506141026 | 54 | 32 | 3.0 | 7.0 | 0.00 | 0.00 | 0.00 | 79 | 1017.8 |
| 20260506140525 | 54 | 39 | 3.0 | 7.0 | 0.00 | 0.00 | 0.00 | 79 | 1017.7 |
| 20260506140004 | 53 | 40 | 3.0 | 7.0 | 0.00 | 0.00 | 0.00 | 80 | 1017.7 |
| 20260506135504 | 53 | 40 | 3.0 | 7.0 | 0.00 | 0.00 | 0.00 | 80 | 1017.6 |
| 20260506135004 | 53 | 39 | 3.0 | 8.0 | 0.00 | 0.00 | 0.00 | 81 | 1017.7 |
| 20260506134504 | 53 | 41 | 3.0 | 8.0 | 0.00 | 0.00 | 0.00 | 80 | 1017.6 |
| 20260506134004 | 52 | 43 | 3.0 | 7.0 | 0.00 | 0.00 | 0.00 | 80 | 1017.4 |
| 20260506133504 | 52 | 44 | 3.0 | 6.0 | 0.00 | 0.00 | 0.00 | 80 | 1017.5 |
| 20260506133004 | 52 | 43 | 3.0 | 6.0 | 0.00 | 0.00 | 0.00 | 80 | 1017.5 |
| 20260506132505 | 53 | 41 | 3.0 | 5.0 | 0.00 | 0.00 | 0.00 | 80 | 1017.3 |
| 20260506132025 | 53 | 39 | 3.0 | 5.0 | 0.00 | 0.00 | 0.00 | 81 | 1017.3 |
| 20260506131525 | 53 | 37 | 2.0 | 6.0 | 0.00 | 0.00 | 0.00 | 81 | 1017.3 |
| 20260506131004 | 53 | 35 | 2.0 | 6.0 | 0.00 | 0.00 | 0.00 | 81 | 1017.2 |
| 20260506130504 | 53 | 34 | 2.0 | 4.0 | 0.00 | 0.00 | 0.00 | 81 | 1017.3 |
| 20260506130005 | 53 | 34 | 3.0 | 6.0 | 0.00 | 0.00 | 0.00 | 81 | 1017.2 |
| 20260506125504 | 53 | 33 | 3.0 | 6.0 | 0.00 | 0.00 | 0.00 | 81 | 1017.1 |
| 20260506125004 | 53 | 32 | 3.0 | 5.0 | 0.00 | 0.00 | 0.00 | 81 | 1017.1 |
| 20260506124504 | 53 | 32 | 3.0 | 5.0 | 0.00 | 0.00 | 0.00 | 81 | 1017.2 |
| 20260506124004 | 53 | 32 | 2.0 | 5.0 | 0.00 | 0.00 | 0.00 | 81 | 1017.0 |
| 20260506123525 | 53 | 31 | 2.0 | 5.0 | 0.00 | 0.00 | 0.00 | 81 | 1017.1 |
| 20260506123004 | 53 | 31 | 2.0 | 5.0 | 0.00 | 0.00 | 0.00 | 81 | 1017.0 |
| 20260506122504 | 53 | 30 | 3.0 | 5.0 | 0.00 | 0.00 | 0.00 | 82 | 1017.0 |
| 20260506122004 | 53 | 30 | 2.0 | 6.0 | 0.00 | 0.00 | 0.00 | 82 | 1016.8 |
| 20260506121505 | 53 | 31 | 2.0 | 6.0 | 0.00 | 0.00 | 0.00 | 82 | 1016.8 |
| 20260506121004 | 53 | 32 | 2.0 | 5.0 | 0.00 | 0.00 | 0.00 | 82 | 1016.7 |
| 20260506120504 | 53 | 32 | 3.0 | 5.0 | 0.00 | 0.00 | 0.00 | 82 | 1016.8 |
| 20260506120004 | 53 | 32 | 3.0 | 5.0 | 0.00 | 0.00 | 0.00 | 82 | 1016.8 |
| 20260506115525 | 53 | 32 | 3.0 | 5.0 | 0.00 | 0.00 | 0.00 | 82 | 1016.8 |
| 20260506115004 | 53 | 31 | 3.0 | 5.0 | 0.00 | 0.00 | 0.00 | 82 | 1016.8 |
| 20260506114504 | 53 | 31 | 3.0 | 6.0 | 0.00 | 0.00 | 0.00 | 82 | 1016.7 |
| 20260506114004 | 53 | 28 | 4.0 | 7.0 | 0.00 | 0.00 | 0.00 | 82 | 1016.7 |
| 20260506113525 | 53 | 26 | 4.0 | 8.0 | 0.00 | 0.00 | 0.00 | 82 | 1016.8 |
| 20260506113004 | 53 | 28 | 4.0 | 8.0 | 0.00 | 0.00 | 0.00 | 82 | 1016.7 |
| 20260506112504 | 53 | 34 | 4.0 | 10.0 | 0.00 | 0.00 | 0.00 | 82 | 1016.7 |
| 20260506112004 | 54 | 35 | 4.0 | 10.0 | 0.00 | 0.00 | 0.00 | 82 | 1016.6 |
| 20260506111525 | 54 | 33 | 4.0 | 8.0 | 0.00 | 0.00 | 0.00 | 82 | 1016.7 |
| 20260506111004 | 54 | 35 | 4.0 | 8.0 | 0.00 | 0.00 | 0.00 | 82 | 1016.7 |
| 20260506110504 | 53 | 38 | 4.0 | 9.0 | 0.00 | 0.00 | 0.00 | 82 | 1016.7 |
| 20260506110004 | 54 | 40 | 4.0 | 9.0 | 0.00 | 0.00 | 0.00 | 82 | 1016.8 |
| 20260506105504 | 53 | 40 | 3.0 | 7.0 | 0.00 | 0.00 | 0.00 | 82 | 1016.8 |
| 20260506105004 | 54 | 41 | 3.0 | 6.0 | 0.00 | 0.00 | 0.00 | 82 | 1016.8 |
| 20260506104504 | 54 | 44 | 3.0 | 6.0 | 0.00 | 0.00 | 0.00 | 82 | 1016.7 |
| 20260506104004 | 54 | 44 | 3.0 | 7.0 | 0.00 | 0.00 | 0.00 | 82 | 1016.7 |
| 20260506103525 | 54 | 41 | 4.0 | 7.0 | 0.00 | 0.00 | 0.00 | 82 | 1016.6 |
| 20260506103004 | 54 | 38 | 4.0 | 7.0 | 0.00 | 0.00 | 0.00 | 82 | 1016.6 |
| 20260506102504 | 53 | 41 | 4.0 | 9.0 | 0.00 | 0.00 | 0.00 | 82 | 1016.6 |
| 20260506102004 | 53 | 40 | 4.0 | 9.0 | 0.00 | 0.00 | 0.00 | 82 | 1016.6 |
| 20260506101504 | 54 | 38 | 4.0 | 9.0 | 0.00 | 0.00 | 0.00 | 82 | 1016.7 |
| 20260506101004 | 54 | 42 | 4.0 | 9.0 | 0.00 | 0.00 | 0.00 | 82 | 1016.7 |
| 20260506100504 | 54 | 46 | 4.0 | 9.0 | 0.00 | 0.00 | 0.00 | 82 | 1016.7 |
| 20260506100025 | 54 | 45 | 4.0 | 9.0 | 0.00 | 0.00 | 0.00 | 82 | 1016.7 |
| 20260506095525 | 54 | 44 | 3.0 | 9.0 | 0.00 | 0.00 | 0.00 | 82 | 1016.6 |
| 20260506095004 | 54 | 45 | 3.0 | 6.0 | 0.00 | 0.00 | 0.00 | 82 | 1016.6 |
| 20260506094504 | 54 | 44 | 2.0 | 6.0 | 0.00 | 0.00 | 0.00 | 81 | 1016.7 |
| 20260506094004 | 54 | 43 | 2.0 | 3.0 | 0.00 | 0.00 | 0.00 | 82 | 1016.8 |
| 20260506093504 | 54 | 43 | 2.0 | 5.0 | 0.00 | 0.00 | 0.00 | 82 | 1016.9 |
| 20260506093004 | 54 | 43 | 2.0 | 5.0 | 0.00 | 0.00 | 0.00 | 82 | 1016.8 |
| 20260506092525 | 54 | 43 | 2.0 | 4.0 | 0.00 | 0.00 | 0.00 | 82 | 1017.0 |
| 20260506092004 | 54 | 44 | 3.0 | 5.0 | 0.00 | 0.00 | 0.00 | 81 | 1016.9 |
| 20260506091525 | 54 | 44 | 3.0 | 5.0 | 0.00 | 0.00 | 0.00 | 81 | 1016.9 |
| 20260506091004 | 54 | 44 | 2.0 | 5.0 | 0.00 | 0.00 | 0.00 | 81 | 1016.9 |
| 20260506090504 | 55 | 44 | 2.0 | 4.0 | 0.00 | 0.00 | 0.00 | 81 | 1017.0 |
| 20260506090004 | 55 | 45 | 3.0 | 5.0 | 0.00 | 0.00 | 0.00 | 81 | 1017.0 |
| 20260506085504 | 55 | 45 | 3.0 | 5.0 | 0.00 | 0.00 | 0.00 | 81 | 1017.0 |
| 20260506085025 | 55 | 45 | 3.0 | 6.0 | 0.00 | 0.00 | 0.00 | 81 | 1017.0 |
| 20260506084504 | 55 | 46 | 3.0 | 6.0 | 0.00 | 0.00 | 0.00 | 81 | 1017.2 |
| 20260506084004 | 55 | 46 | 3.0 | 5.0 | 0.00 | 0.00 | 0.00 | 81 | 1017.2 |
| 20260506083525 | 55 | 46 | 3.0 | 5.0 | 0.00 | 0.00 | 0.00 | 82 | 1017.2 |
| 20260506083004 | 55 | 46 | 3.0 | 5.0 | 0.00 | 0.00 | 0.00 | 82 | 1017.2 |
| 20260506082504 | 55 | 46 | 3.0 | 5.0 | 0.00 | 0.00 | 0.00 | 81 | 1017.1 |
| 20260506082025 | 55 | 46 | 3.0 | 5.0 | 0.00 | 0.00 | 0.00 | 81 | 1017.2 |
| 20260506081504 | 55 | 46 | 3.0 | 5.0 | 0.00 | 0.00 | 0.00 | 82 | 1017.2 |
| 20260506081004 | 55 | 46 | 4.0 | 6.0 | 0.00 | 0.00 | 0.00 | 82 | 1017.3 |
| 20260506080504 | 55 | 47 | 4.0 | 7.0 | 0.00 | 0.00 | 0.00 | 82 | 1017.3 |
| 20260506073504 | 55 | 52 | 3.0 | 7.0 | 0.00 | 0.00 | 0.00 | 81 | 1017.1 |
| 20260506073004 | 55 | 53 | 3.0 | 6.0 | 0.00 | 0.00 | 0.00 | 81 | 1017.1 |
| 20260506072504 | 55 | 54 | 4.0 | 7.0 | 0.00 | 0.00 | 0.00 | 81 | 1017.1 |
| 20260506072025 | 56 | 56 | 3.0 | 7.0 | 0.00 | 0.00 | 0.00 | 81 | 1017.0 |
| 20260506071504 | 56 | 60 | 3.0 | 7.0 | 0.00 | 0.00 | 0.00 | 81 | 1017.1 |
| 20260506071004 | 56 | 61 | 3.0 | 6.0 | 0.00 | 0.00 | 0.00 | 81 | 1016.9 |
| 20260506070504 | 56 | 62 | 3.0 | 6.0 | 0.00 | 0.00 | 0.00 | 81 | 1016.8 |
| 20260506062504 | 56 | 67 | 3.0 | 5.0 | 0.00 | 0.00 | 0.00 | 81 | 1016.4 |
| 20260506062004 | 56 | 68 | 3.0 | 5.0 | 0.00 | 0.00 | 0.00 | 81 | 1016.3 |
| 20260506061504 | 56 | 69 | 3.0 | 5.0 | 0.00 | 0.00 | 0.00 | 80 | 1016.2 |
| 20260506061004 | 56 | 69 | 3.0 | 5.0 | 0.00 | 0.00 | 0.00 | 80 | 1016.2 |
| 20260506060504 | 56 | 69 | 3.0 | 5.0 | 0.00 | 0.00 | 0.00 | 80 | 1016.2 |
| 20260506051025 | 57 | 88 | 3.0 | 6.0 | 0.00 | 0.00 | 0.00 | 81 | 1015.8 |
| 20260506050504 | 57 | 89 | 3.0 | 6.0 | 0.00 | 0.00 | 0.00 | 81 | 1015.6 |
| 20260506045004 | 57 | 92 | 2.0 | 7.0 | 0.00 | 0.00 | 0.00 | 81 | 1015.5 |
| 20260506044504 | 57 | 94 | 2.0 | 6.0 | 0.00 | 0.00 | 0.00 | 80 | 1015.4 |
| 20260506044025 | 57 | 96 | 2.0 | 6.0 | 0.00 | 0.00 | 0.00 | 80 | 1015.4 |
| 20260506043504 | 57 | 98 | 2.0 | 7.0 | 0.00 | 0.00 | 0.00 | 80 | 1015.4 |
| 20260506043004 | 58 | 102 | 2.0 | 7.0 | 0.00 | 0.00 | 0.00 | 80 | 1015.3 |
| 20260506042504 | 58 | 106 | 2.0 | 4.0 | 0.00 | 0.00 | 0.00 | 80 | 1015.4 |
| 20260506042004 | 58 | 113 | 2.0 | 4.0 | 0.00 | 0.00 | 0.00 | 80 | 1015.3 |
| 20260506041504 | 58 | 125 | 1.0 | 4.0 | 0.00 | 0.00 | 0.00 | 80 | 1015.2 |
| 20260506041025 | 58 | 138 | 0.0 | 4.0 | 0.00 | 0.00 | 0.00 | 80 | 1015.3 |
| 20260506040504 | 58 | 178 | 0.0 | 3.0 | 0.00 | 0.00 | 0.00 | 80 | 1015.2 |
| 20260506040025 | 58 | 180 | 1.0 | 1.0 | 0.00 | 0.00 | 0.00 | 80 | 1015.1 |
| 20260506035504 | 58 | 180 | 1.0 | 4.0 | 0.00 | 0.00 | 0.00 | 79 | 1014.9 |
| 20260506035004 | 58 | 181 | 1.0 | 4.0 | 0.00 | 0.00 | 0.00 | 79 | 1014.9 |
| 20260506034504 | 58 | 182 | 1.0 | 3.0 | 0.00 | 0.00 | 0.00 | 79 | 1014.8 |
| 20260506034004 | 58 | 183 | 1.0 | 3.0 | 0.00 | 0.00 | 0.00 | 79 | 1014.8 |
| 20260506033504 | 59 | 184 | 1.0 | 3.0 | 0.00 | 0.00 | 0.00 | 78 | 1014.7 |
| 20260506033025 | 59 | 184 | 2.0 | 4.0 | 0.00 | 0.00 | 0.00 | 78 | 1014.6 |
| 20260506032504 | 59 | 183 | 2.0 | 6.0 | 0.00 | 0.00 | 0.00 | 77 | 1014.6 |
| 20260506032004 | 59 | 183 | 2.0 | 6.0 | 0.00 | 0.00 | 0.00 | 77 | 1014.5 |
| 20260506031004 | 60 | 184 | 2.0 | 5.0 | 0.00 | 0.00 | 0.00 | 76 | 1014.3 |
| 20260506030504 | 60 | 182 | 2.0 | 4.0 | 0.00 | 0.00 | 0.00 | 75 | 1014.3 |
| 20260506030025 | 60 | 179 | 3.0 | 5.0 | 0.00 | 0.00 | 0.00 | 75 | 1014.1 |
| 20260506025504 | 60 | 193 | 3.0 | 5.0 | 0.00 | 0.00 | 0.00 | 74 | 1014.2 |
| 20260506025004 | 60 | 204 | 3.0 | 5.0 | 0.00 | 0.00 | 0.00 | 73 | 1014.0 |
| 20260506024504 | 61 | 204 | 2.0 | 5.0 | 0.00 | 0.00 | 0.00 | 72 | 1013.8 |
| 20260506024004 | 61 | 203 | 3.0 | 4.0 | 0.00 | 0.00 | 0.00 | 71 | 1013.9 |
| 20260506023504 | 61 | 204 | 4.0 | 7.0 | 0.00 | 0.00 | 0.00 | 71 | 1013.8 |
| 20260506023025 | 61 | 205 | 4.0 | 7.0 | 0.00 | 0.00 | 0.00 | 71 | 1013.7 |
| 20260506022504 | 62 | 219 | 4.0 | 7.0 | 0.00 | 0.00 | 0.00 | 70 | 1013.6 |
| 20260506022025 | 62 | 229 | 4.0 | 6.0 | 0.00 | 0.00 | 0.00 | 70 | 1013.5 |
| 20260506021504 | 62 | 218 | 4.0 | 7.0 | 0.00 | 0.00 | 0.00 | 70 | 1013.5 |
| 20260506021004 | 62 | 218 | 4.0 | 7.0 | 0.00 | 0.00 | 0.00 | 69 | 1013.5 |
| 20260506020504 | 62 | 219 | 4.0 | 8.0 | 0.00 | 0.00 | 0.00 | 69 | 1013.4 |
| 20260506020025 | 63 | 219 | 4.0 | 8.0 | 0.00 | 0.00 | 0.00 | 69 | 1013.4 |
| 20260506015504 | 63 | 223 | 4.0 | 7.0 | 0.00 | 0.00 | 0.00 | 69 | 1013.3 |
| 20260506015004 | 63 | 224 | 4.0 | 8.0 | 0.00 | 0.00 | 0.00 | 69 | 1013.3 |
| 20260506014504 | 63 | 223 | 5.0 | 8.0 | 0.00 | 0.00 | 0.00 | 69 | 1013.4 |
| 20260506014004 | 63 | 226 | 5.0 | 8.0 | 0.00 | 0.00 | 0.00 | 69 | 1013.3 |
| 20260506013504 | 63 | 230 | 5.0 | 10.0 | 0.00 | 0.00 | 0.00 | 69 | 1013.2 |
| 20260506013004 | 63 | 233 | 5.0 | 10.0 | 0.00 | 0.00 | 0.00 | 69 | 1013.2 |
| 20260506012504 | 63 | 239 | 6.0 | 9.0 | 0.00 | 0.00 | 0.00 | 70 | 1013.4 |
| 20260506012004 | 63 | 232 | 6.0 | 12.0 | 0.00 | 0.00 | 0.00 | 70 | 1013.4 |
| 20260506011504 | 63 | 226 | 5.0 | 12.0 | 0.00 | 0.00 | 0.00 | 69 | 1013.4 |
| 20260506011004 | 63 | 226 | 5.0 | 12.0 | 0.00 | 0.00 | 0.00 | 70 | 1013.2 |
| 20260506010504 | 63 | 228 | 6.0 | 9.0 | 0.00 | 0.00 | 0.00 | 70 | 1013.3 |
| 20260506010004 | 63 | 225 | 6.0 | 10.0 | 0.00 | 0.00 | 0.00 | 70 | 1013.3 |
| 20260506005525 | 63 | 224 | 6.0 | 10.0 | 0.00 | 0.00 | 0.00 | 70 | 1013.3 |
| 20260506005004 | 63 | 228 | 6.0 | 10.0 | 0.00 | 0.00 | 0.00 | 70 | 1013.4 |
| 20260506004504 | 63 | 234 | 6.0 | 12.0 | 0.00 | 0.00 | 0.00 | 70 | 1013.3 |
| 20260506004004 | 62 | 244 | 7.0 | 12.0 | 0.00 | 0.00 | 0.00 | 70 | 1013.3 |
| 20260506003504 | 62 | 236 | 7.0 | 14.0 | 0.00 | 0.00 | 0.00 | 70 | 1013.4 |
| 20260506003025 | 62 | 227 | 7.0 | 14.0 | 0.00 | 0.00 | 0.00 | 70 | 1013.4 |